[[{"header":{"parameterUnit":"m.s-1","parameterCategory":1,"la1":30.2991,"la2":30.254,"lo1":-89.0895,"lo2":-89.0444,"dy":0.0017,"dx":0.0017,"nx":28,"ny":28,"refTime":"2023-10-05T03:00:00:Z","depth":0,"parameterNumber":2,"parameterNumberName":"U-component_of_WINDS"},"data":[0,0,0,0,0,0,0,0,0,0,0,0,0,0,0,0,0,0,0,0,0,0,0,0,0,0,0,0,0,0,0,0,0,0,0,0,0,0,0,0,0,0,0,0,0,0,0,0,0,0,0,0,0,0,0,0,0,0,-0.387,-0.3869,0,-0.3836,-0.3836,-0.3836,-0.3829,-0.3829,-0.3829,-0.383,-0.3792,-0.3791,-0.379,0,0,0,0,0,0,0,0,0,0,0,0,0,-0.3924,-0.3924,-0.387,-0.3869,-0.3869,-0.3837,-0.3836,-0.3836,-0.3829,-0.3829,-0.3829,-0.383,-0.3793,-0.3791,-0.379,0,0,0,0,0,0,0,0,0,0,0,0,0,-0.3897,-0.3923,-0.387,-0.3862,-0.3861,-0.3837,-0.3836,-0.3835,-0.3829,-0.3829,-0.3829,-0.383,-0.3793,-0.3792,-0.379,-0.377,0,0,-0.3784,-0.3783,0,0,0,0,0,0,0,0,-0.3898,-0.3895,-0.3863,-0.3862,-0.3861,-0.3837,-0.3842,-0.3814,-0.3829,-0.3841,-0.383,-0.383,-0.3807,-0.3804,-0.3797,-0.3769,-0.3767,-0.3784,-0.3783,-0.3782,-0.3781,0,0,0,0,0,0,0,-0.39,-0.3896,-0.3857,-0.3863,-0.3861,-0.3859,-0.3855,-0.3836,-0.3822,-0.384,-0.3839,-0.3835,-0.3806,-0.3798,-0.3796,-0.3767,-0.3784,-0.3782,-0.3781,-0.378,-0.3721,-0.372,0,0,0,0,0,0,-0.3904,-0.3898,-0.3858,-0.3856,-0.3881,-0.3857,-0.3854,-0.3844,-0.3822,-0.3819,-0.3835,-0.3835,-0.3801,-0.3798,-0.3794,-0.377,-0.3782,-0.378,-0.3779,-0.3721,-0.372,-0.372,0,0,0,0,0,0,-0.3905,-0.3901,-0.3859,-0.3877,-0.3871,-0.3856,-0.3846,-0.3844,-0.3836,-0.3819,-0.3816,-0.383,-0.3802,-0.3797,-0.3777,-0.3769,-0.3779,-0.3778,-0.3722,-0.3721,-0.372,-0.3722,0,0,0,0,0,0,-0.3907,-0.3901,-0.3894,-0.3876,-0.387,-0.3843,-0.3845,-0.3843,-0.3833,-0.3833,-0.3813,-0.381,-0.3802,-0.3779,-0.3775,-0.3767,-0.3776,-0.3722,-0.3721,-0.372,-0.3723,-0.3721,-0.372,0,0,0,0,0,-0.3909,-0.3896,-0.3894,-0.3889,-0.3862,-0.3842,-0.3838,-0.383,-0.3833,-0.3825,-0.3814,-0.3811,-0.3771,-0.3777,-0.3772,-0.3763,-0.3723,-0.3722,-0.372,-0.3723,-0.3722,-0.372,0,0,0,0,0,0,-0.3912,-0.3893,-0.3891,-0.3872,-0.3859,-0.3841,-0.3832,-0.3828,-0.3813,-0.3814,-0.3802,-0.3798,-0.3778,-0.3768,-0.3777,-0.3743,-0.3747,-0.3744,-0.375,-0.3749,-0.3748,-0.3751,-0.3775,0,0,0,0,0,-0.3911,-0.3897,-0.3881,-0.3866,-0.3859,-0.3847,-0.3838,-0.3832,-0.3818,-0.3812,-0.3799,-0.3785,-0.3768,-0.3758,-0.3742,-0.3721,-0.3716,-0.3712,-0.3711,-0.371,-0.3709,-0.3696,-0.3694,-0.3716,-0.3716,-0.3716,0,0,-0.3907,-0.3895,-0.3887,-0.3866,-0.3855,-0.3841,-0.3842,-0.3827,-0.3816,-0.3809,-0.379,-0.378,-0.3762,-0.3741,-0.3731,-0.3733,-0.3701,-0.3709,-0.3709,-0.3707,-0.3695,-0.3693,-0.3691,-0.3716,-0.3716,-0.3716,0,0,-0.3894,-0.3884,-0.387,-0.3859,-0.3843,-0.3835,-0.3831,-0.3814,-0.3808,-0.3788,-0.3782,-0.3769,-0.3741,-0.3729,-0.3719,-0.3701,-0.3698,-0.3696,-0.3691,-0.3679,-0.3677,-0.3675,-0.3669,-0.3666,-0.3695,-0.3695,-0.3695,0,-0.3891,-0.3871,-0.3863,-0.3848,-0.3838,-0.3833,-0.3818,-0.3807,-0.3787,-0.378,-0.3782,-0.3747,-0.3735,-0.3711,-0.3707,-0.3699,-0.3694,-0.3699,-0.3678,-0.3676,-0.3675,-0.3668,-0.3666,-0.3694,-0.3694,-0.3694,-0.3694,0,-0.3868,-0.3854,-0.3844,-0.3826,-0.3815,-0.38,-0.3789,-0.3779,-0.3774,-0.3765,-0.3744,-0.373,-0.3711,-0.3705,-0.3699,-0.368,-0.3681,-0.3681,-0.3684,-0.3673,-0.3666,-0.3664,-0.3694,-0.3694,-0.3694,-0.3694,0,0,-0.3856,-0.3833,-0.383,-0.3821,-0.3803,-0.3791,-0.3776,-0.3758,-0.375,-0.3735,-0.3722,-0.3699,-0.3698,-0.3687,-0.368,-0.367,-0.3656,-0.3671,-0.367,-0.3668,-0.3633,-0.3633,-0.363,-0.3654,-0.3653,-0.3653,-0.3634,0,-0.3841,-0.3814,-0.3806,-0.3784,-0.377,-0.3764,-0.3751,-0.3737,-0.3729,-0.3715,-0.3704,-0.3688,-0.3689,-0.3682,-0.3672,-0.366,-0.3649,-0.3661,-0.364,-0.3639,-0.3644,-0.3627,-0.3627,-0.3611,-0.3632,-0.3631,-0.3631,0,-0.3819,-0.3805,-0.3782,-0.3765,-0.3759,-0.3747,-0.3731,-0.3718,-0.3702,-0.3696,-0.3684,-0.3678,-0.3661,-0.3665,-0.364,-0.3649,-0.364,-0.3632,-0.3632,-0.3629,-0.3634,-0.3624,-0.3605,-0.3603,-0.3627,-0.3627,-0.3627,0,-0.3812,-0.3788,-0.3771,-0.3763,-0.3744,-0.3735,-0.3727,-0.3712,-0.3702,-0.3686,-0.368,-0.3662,-0.3653,-0.3639,-0.3628,-0.3632,-0.3604,-0.3608,-0.3598,-0.3598,-0.3592,-0.3593,-0.3572,-0.3586,-0.3586,-0.3587,-0.3587,0,-0.3796,-0.3781,-0.3767,-0.3757,-0.374,-0.3731,-0.3714,-0.3705,-0.3692,-0.3678,-0.3672,-0.3659,-0.3646,-0.3631,-0.3622,-0.3603,-0.3598,-0.3592,-0.359,-0.3593,-0.3594,-0.3586,-0.3587,-0.3586,-0.3586,-0.3586,-0.3586,0,-0.3785,-0.3776,-0.3756,-0.374,-0.3735,-0.3724,-0.3709,-0.3697,-0.3688,-0.3671,-0.3667,-0.3652,-0.3634,-0.3622,-0.3599,-0.3593,-0.3572,-0.357,-0.3578,-0.3577,-0.3568,-0.3569,-0.3541,-0.3537,-0.3555,-0.3555,-0.3554,0,-0.3775,-0.3765,-0.3747,-0.3738,-0.373,-0.3715,-0.3705,-0.3695,-0.3685,-0.3666,-0.3657,-0.3639,-0.3624,-0.3596,-0.3582,-0.3564,-0.3562,-0.3553,-0.3559,-0.3562,-0.3561,-0.3562,-0.356,-0.3552,-0.3552,-0.3552,-0.3552,0,-0.3759,-0.3755,-0.3741,-0.3726,-0.3714,-0.3701,-0.3688,-0.3681,-0.3668,-0.3656,-0.3639,-0.3627,-0.3604,-0.3586,-0.3567,-0.3557,-0.3552,-0.355,-0.3547,-0.355,-0.3555,-0.3552,-0.3575,-0.3551,-0.3551,-0.3551,-0.3551,-0.3551,-0.3748,-0.3738,-0.3724,-0.3709,-0.3698,-0.3686,-0.3675,-0.3665,-0.365,-0.3632,-0.3626,-0.3608,-0.3591,-0.3566,-0.3555,-0.3539,-0.354,-0.3535,-0.3534,-0.3533,-0.3533,-0.3557,-0.3536,-0.3536,-0.3536,-0.3536,-0.3536,0,-0.3731,-0.3722,-0.3708,-0.3691,-0.3678,-0.3676,-0.3662,-0.3651,-0.3635,-0.3621,-0.3607,-0.3586,-0.3569,-0.3554,-0.3536,-0.3526,-0.3523,-0.3521,-0.3522,-0.3519,-0.3534,-0.3538,-0.3524,-0.3524,-0.3524,-0.3524,-0.3524,-0.3524,-0.3721,-0.3703,-0.3698,-0.3675,-0.3665,-0.3648,-0.364,-0.3628,-0.3617,-0.3595,-0.358,-0.3571,-0.3556,-0.3537,-0.352,-0.3516,-0.3509,-0.3508,-0.3503,-0.3517,-0.3518,-0.352,-0.3524,-0.3507,-0.3507,-0.349,-0.349,-0.349]},{"header":{"parameterUnit":"m.s-1","parameterCategory":1,"la1":30.2991,"la2":30.254,"lo1":-89.0895,"lo2":-89.0444,"dy":0.0017,"dx":0.0017,"nx":28,"ny":28,"refTime":"2023-10-05T03:00:00:Z","depth":0,"parameterNumber":3,"parameterNumberName":"V-component_of_WINDS"},"data":[0,0,0,0,0,0,0,0,0,0,0,0,0,0,0,0,0,0,0,0,0,0,0,0,0,0,0,0,0,0,0,0,0,0,0,0,0,0,0,0,0,0,0,0,0,0,0,0,0,0,0,0,0,0,0,0,0,0,-3.3248,-3.325,0,-3.3443,-3.3445,-3.3447,-3.3462,-3.346,-3.3458,-3.3456,-3.366,-3.3668,-3.3675,0,0,0,0,0,0,0,0,0,0,0,0,0,-3.2895,-3.2901,-3.3248,-3.325,-3.3252,-3.3442,-3.3445,-3.3448,-3.3463,-3.346,-3.3457,-3.3455,-3.3658,-3.3667,-3.3676,0,0,0,0,0,0,0,0,0,0,0,0,0,-3.3065,-3.2903,-3.3247,-3.3283,-3.3288,-3.3442,-3.3445,-3.3449,-3.3463,-3.346,-3.3457,-3.3454,-3.3655,-3.3666,-3.3677,-3.381,0,0,-3.3711,-3.3716,0,0,0,0,0,0,0,0,-3.3055,-3.3078,-3.3275,-3.3281,-3.3287,-3.3425,-3.3396,-3.357,-3.3464,-3.3397,-3.3456,-3.3452,-3.3585,-3.3602,-3.3645,-3.382,-3.3829,-3.3712,-3.3719,-3.3724,-3.3727,0,0,0,0,0,0,0,-3.3043,-3.3069,-3.3325,-3.3278,-3.3285,-3.3291,-3.3312,-3.3429,-3.3507,-3.3402,-3.3404,-3.3427,-3.3587,-3.3635,-3.365,-3.3832,-3.3712,-3.3722,-3.3729,-3.3733,-3.4128,-3.4132,0,0,0,0,0,0,-3.3024,-3.3059,-3.3319,-3.3331,-3.316,-3.33,-3.3323,-3.3384,-3.3505,-3.3521,-3.3429,-3.3427,-3.3617,-3.3637,-3.3658,-3.3823,-3.3724,-3.3734,-3.374,-3.4124,-3.4129,-3.4133,0,0,0,0,0,0,-3.3016,-3.3047,-3.3311,-3.3196,-3.323,-3.3309,-3.3378,-3.3389,-3.3436,-3.3526,-3.354,-3.3462,-3.3615,-3.3642,-3.3772,-3.383,-3.3739,-3.3749,-3.412,-3.4126,-3.4131,-3.4154,0,0,0,0,0,0,-3.3006,-3.3044,-3.3094,-3.3197,-3.3236,-3.3421,-3.3381,-3.3395,-3.3455,-3.3454,-3.3561,-3.3576,-3.3615,-3.3756,-3.3784,-3.3844,-3.3758,-3.4115,-3.4122,-3.4129,-3.4148,-3.416,-3.4169,0,0,0,0,0,-3.2993,-3.3093,-3.3096,-3.3127,-3.3299,-3.3424,-3.3446,-3.3488,-3.3459,-3.3512,-3.3569,-3.3572,-3.382,-3.3769,-3.38,-3.3865,-3.4112,-3.412,-3.4129,-3.4144,-3.4158,-3.4169,0,0,0,0,0,0,-3.2996,-3.3107,-3.3112,-3.3247,-3.3326,-3.3426,-3.3492,-3.3501,-3.3591,-3.3586,-3.3636,-3.366,-3.3789,-3.3841,-3.3782,-3.4002,-3.3963,-3.3978,-3.3963,-3.3977,-3.3988,-3.3973,-3.3767,0,0,0,0,0,-3.3012,-3.3102,-3.3195,-3.3306,-3.3345,-3.3412,-3.3468,-3.3493,-3.3577,-3.3611,-3.3678,-3.3761,-3.3858,-3.3921,-3.4014,-3.4156,-3.4181,-3.4217,-3.4227,-3.4235,-3.4248,-3.4329,-3.4346,-3.4161,-3.4161,-3.4161,0,0,-3.3047,-3.3119,-3.3172,-3.3308,-3.3372,-3.3466,-3.344,-3.354,-3.3611,-3.3627,-3.3754,-3.3807,-3.3903,-3.404,-3.4104,-3.4087,-3.4305,-3.4246,-3.4252,-3.426,-3.4339,-3.4357,-3.4372,-3.4167,-3.4166,-3.4165,0,0,-3.3158,-3.322,-3.332,-3.3385,-3.3482,-3.3526,-3.355,-3.365,-3.3685,-3.3813,-3.3828,-3.3914,-3.4079,-3.4147,-3.4204,-3.4344,-3.435,-3.4373,-3.4428,-3.4506,-3.4521,-3.4534,-3.4585,-3.4603,-3.4385,-3.4385,-3.4385,0,-3.3189,-3.3329,-3.3371,-3.3471,-3.3531,-3.355,-3.3652,-3.3714,-3.3837,-3.3879,-3.3858,-3.4067,-3.4133,-3.4287,-3.4321,-3.4366,-3.4397,-3.4361,-3.4515,-3.4529,-3.4542,-3.4591,-3.461,-3.4388,-3.4387,-3.4387,-3.4387,0,-3.3363,-3.3461,-3.353,-3.3647,-3.3716,-3.3817,-3.3876,-3.3941,-3.3962,-3.4009,-3.4141,-3.4221,-3.4332,-3.4371,-3.4392,-3.4529,-3.4516,-3.4504,-3.4466,-3.4561,-3.4608,-3.4627,-3.4391,-3.439,-3.4389,-3.4389,0,0,-3.3479,-3.362,-3.3645,-3.3699,-3.3808,-3.3886,-3.3989,-3.4097,-3.4152,-3.4237,-3.4326,-3.4467,-3.4457,-3.4521,-3.4551,-3.462,-3.4727,-3.4601,-3.4604,-3.4622,-3.4885,-3.4893,-3.4914,-3.4733,-3.4736,-3.4739,-3.4878,0,-3.3603,-3.3785,-3.3827,-3.3984,-3.4076,-3.4096,-3.4187,-3.4265,-3.4313,-3.4399,-3.4453,-3.4552,-3.4531,-3.4571,-3.464,-3.4699,-3.4781,-3.469,-3.4818,-3.4822,-3.4793,-3.4939,-3.4947,-3.5074,-3.4896,-3.4899,-3.4902,0,-3.3771,-3.3859,-3.4025,-3.4124,-3.4164,-3.4244,-3.4347,-3.443,-3.452,-3.455,-3.4623,-3.4646,-3.4757,-3.4713,-3.4868,-3.4805,-3.4861,-3.4898,-3.4904,-3.4918,-3.4867,-3.4957,-3.5115,-3.5134,-3.4931,-3.4929,-3.4927,0,-3.3839,-3.4,-3.412,-3.4166,-3.4285,-3.4341,-3.4394,-3.4481,-3.4544,-3.4635,-3.4677,-3.478,-3.4837,-3.4917,-3.4969,-3.4932,-3.512,-3.508,-3.515,-3.5149,-3.5188,-3.5185,-3.5358,-3.5223,-3.5223,-3.5223,-3.5222,0,-3.3973,-3.4074,-3.4153,-3.4227,-3.4342,-3.4391,-3.4504,-3.4557,-3.4635,-3.4722,-3.4746,-3.4828,-3.489,-3.4981,-3.5023,-3.5146,-3.5171,-3.52,-3.521,-3.5198,-3.5194,-3.5235,-3.5228,-3.5228,-3.5227,-3.5226,-3.5225,0,-3.4068,-3.4125,-3.4258,-3.436,-3.4388,-3.4469,-3.4557,-3.4631,-3.468,-3.479,-3.4819,-3.4897,-3.5005,-3.5064,-3.5201,-3.5229,-3.5366,-3.5371,-3.5335,-3.534,-3.5406,-3.5399,-3.5611,-3.5642,-3.5486,-3.5488,-3.5489,0,-3.4149,-3.4227,-3.4338,-3.4397,-3.445,-3.4545,-3.461,-3.4662,-3.4728,-3.4839,-3.4901,-3.501,-3.51,-3.5273,-3.5343,-3.5448,-3.5456,-3.5524,-3.5472,-3.5459,-3.5459,-3.5454,-3.5463,-3.5532,-3.5534,-3.5535,-3.5536,0,-3.4288,-3.4313,-3.4403,-3.4505,-3.4581,-3.4664,-3.4746,-3.4794,-3.486,-3.4934,-3.5045,-3.5115,-3.5254,-3.5364,-3.5475,-3.5531,-3.5546,-3.5551,-3.5573,-3.5562,-3.5538,-3.5553,-3.536,-3.5546,-3.5545,-3.5544,-3.5544,-3.5543,-3.4379,-3.445,-3.4539,-3.4641,-3.4708,-3.4785,-3.486,-3.4919,-3.5012,-3.5128,-3.5155,-3.5272,-3.5364,-3.5514,-3.5574,-3.5668,-3.5656,-3.5687,-3.5695,-3.5702,-3.5705,-3.5523,-3.5689,-3.5688,-3.5688,-3.5688,-3.5688,0,-3.4519,-3.4578,-3.4671,-3.4785,-3.4865,-3.4871,-3.4963,-3.5031,-3.5133,-3.5217,-3.5305,-3.5434,-3.5541,-3.562,-3.573,-3.579,-3.58,-3.5818,-3.5814,-3.5827,-3.5709,-3.568,-3.5808,-3.5808,-3.5808,-3.5808,-3.5808,-3.5808,-3.4601,-3.4723,-3.4759,-3.4915,-3.4974,-3.5088,-3.514,-3.5213,-3.528,-3.5422,-3.5511,-3.5561,-3.5644,-3.5761,-3.586,-3.5881,-3.5921,-3.5938,-3.596,-3.5848,-3.5835,-3.5823,-3.5795,-3.5946,-3.5946,-3.607,-3.6071,-3.6072]}]]